Location: Neuvy Saint Sepulchre
(46.5953°N, 1.8122°E)
Time: 10:52:49
(UTC+01:00)

Envisat - Pass Details

Date: 26 October 2021
Orbit: 764 x 766 km, 98.2° (Epoch: 28 November)

Event Time Altitude Azimuth Distance (km) Brightness Sun altitude
Rises 19:41:21 0° 221° (SW) 3,222 7.1 -10.0°
Reaches altitude 10° 19:45:21 10° 253° (WSW) 2,304 7.0 -10.7°
Maximum altitude 19:47:08 12° 274° (W) 2,187 6.8 -11.0°
Drops below altitude 10° 19:48:55 10° 295° (WNW) 2,310 6.5 -11.3°
Sets 19:52:58 0° 327° (NNW) 3,243 6.6 -12.0°
